| time (UTC) | temp C | wind direction | speed KPH | gust KPH | rain 1hr cm | rain 24hr cm | rain mn cm | humidity % | barometer mb |
| 20260504070235 | 11 | 158 | 0.0 | 1.6 | 0.00 | 0.00 | 0.00 | 53 | 1010.4 |
| 20260504060156 | 11 | 359 | 1.6 | 4.8 | 0.00 | 0.00 | 0.00 | 49 | 1010.5 |
| 20260504050624 | 11 | 57 | 0.0 | 1.6 | 0.00 | 0.00 | 0.00 | 57 | 1010.7 |
| 20260504050121 | 11 | 166 | 0.0 | 1.6 | 0.00 | 0.00 | 0.00 | 56 | 1010.7 |
| 20260504045618 | 11 | 106 | 0.0 | 3.2 | 0.00 | 0.00 | 0.00 | 56 | 1010.7 |
| 20260504045118 | 11 | 122 | 0.0 | 3.2 | 0.00 | 0.00 | 0.00 | 58 | 1010.7 |
| 20260504044616 | 11 | 111 | 0.0 | 0.0 | 0.00 | 0.00 | 0.00 | 59 | 1010.8 |
| 20260504044112 | 11 | 91 | 0.0 | 0.0 | 0.00 | 0.00 | 0.00 | 58 | 1010.8 |
| 20260504043609 | 10 | 79 | 0.0 | 0.0 | 0.00 | 0.00 | 0.00 | 60 | 1010.9 |
| 20260504043107 | 10 | 81 | 0.0 | 0.0 | 0.00 | 0.00 | 0.00 | 60 | 1010.9 |
| 20260504042604 | 10 | 93 | 0.0 | 0.0 | 0.00 | 0.00 | 0.00 | 60 | 1010.9 |
| 20260504042100 | 10 | 84 | 0.0 | 0.0 | 0.00 | 0.00 | 0.00 | 59 | 1010.9 |
| 20260504041556 | 10 | 99 | 0.0 | 0.0 | 0.00 | 0.00 | 0.00 | 60 | 1010.8 |
| 20260504041053 | 10 | 95 | 0.0 | 0.0 | 0.00 | 0.00 | 0.00 | 62 | 1011.0 |
| 20260504040551 | 10 | 95 | 0.0 | 0.0 | 0.00 | 0.00 | 0.00 | 62 | 1011.1 |
| 20260504040047 | 10 | 83 | 0.0 | 0.0 | 0.00 | 0.00 | 0.00 | 61 | 1011.0 |
| 20260504035544 | 10 | 79 | 0.0 | 0.0 | 0.00 | 0.00 | 0.00 | 61 | 1011.1 |
| 20260504035040 | 10 | 86 | 0.0 | 0.0 | 0.00 | 0.00 | 0.00 | 62 | 1011.0 |
| 20260504034538 | 10 | 79 | 0.0 | 0.0 | 0.00 | 0.00 | 0.00 | 63 | 1011.1 |
| 20260504034034 | 10 | 93 | 0.0 | 0.0 | 0.00 | 0.00 | 0.00 | 64 | 1011.1 |
| 20260504033532 | 10 | 112 | 0.0 | 0.0 | 0.00 | 0.00 | 0.00 | 65 | 1011.3 |
| 20260504033030 | 10 | 88 | 0.0 | 0.0 | 0.00 | 0.00 | 0.00 | 66 | 1011.5 |
| 20260504032526 | 10 | 130 | 0.0 | 0.0 | 0.00 | 0.00 | 0.00 | 68 | 1011.4 |
| 20260504032023 | 10 | 139 | 0.0 | 0.0 | 0.00 | 0.00 | 0.00 | 68 | 1011.4 |
| 20260504031520 | 10 | 142 | 0.0 | 0.0 | 0.00 | 0.00 | 0.00 | 67 | 1011.2 |
| 20260504031016 | 10 | 126 | 0.0 | 3.2 | 0.00 | 0.00 | 0.00 | 66 | 1011.3 |
| 20260504030514 | 10 | 288 | 0.0 | 0.0 | 0.00 | 0.00 | 0.00 | 66 | 1011.3 |
| 20260504030010 | 10 | 74 | 0.0 | 0.0 | 0.00 | 0.00 | 0.00 | 66 | 1011.4 |
| 20260504025507 | 10 | 41 | 0.0 | 0.0 | 0.00 | 0.00 | 0.00 | 65 | 1011.5 |
| 20260504025004 | 10 | 81 | 0.0 | 0.0 | 0.00 | 0.00 | 0.00 | 65 | 1011.5 |
| 20260504024500 | 10 | 180 | 1.6 | 1.6 | 0.00 | 0.00 | 0.00 | 65 | 1011.5 |
| 20260504023958 | 10 | 68 | 0.0 | 1.6 | 0.00 | 0.00 | 0.00 | 67 | 1011.7 |
| 20260504023454 | 10 | 316 | 0.0 | 0.0 | 0.00 | 0.00 | 0.00 | 65 | 1011.7 |
| 20260504022950 | 10 | 306 | 1.6 | 3.2 | 0.00 | 0.00 | 0.00 | 64 | 1012.0 |
| 20260504022446 | 10 | 291 | 1.6 | 3.2 | 0.00 | 0.00 | 0.00 | 67 | 1012.0 |
| 20260504021943 | 10 | 308 | 0.0 | 3.2 | 0.00 | 0.00 | 0.00 | 67 | 1012.1 |
| 20260504021440 | 10 | 302 | 1.6 | 4.8 | 0.00 | 0.00 | 0.00 | 67 | 1012.1 |
| 20260504020937 | 10 | 298 | 0.0 | 3.2 | 0.00 | 0.00 | 0.00 | 66 | 1012.4 |
| 20260504020434 | 10 | 303 | 3.2 | 3.2 | 0.00 | 0.00 | 0.00 | 65 | 1012.2 |
| 20260504015931 | 11 | 303 | 4.8 | 6.4 | 0.00 | 0.00 | 0.00 | 67 | 1012.4 |
| 20260504015426 | 11 | 311 | 6.4 | 11.3 | 0.00 | 0.00 | 0.00 | 64 | 1012.6 |
| 20260504014923 | 11 | 318 | 6.4 | 11.3 | 0.00 | 0.00 | 0.00 | 60 | 1012.4 |
| 20260504014419 | 12 | 294 | 6.4 | 11.3 | 0.00 | 0.00 | 0.00 | 53 | 1012.4 |
| 20260504013916 | 12 | 225 | 3.2 | 11.3 | 0.00 | 0.00 | 0.00 | 53 | 1012.1 |
| 20260504013415 | 12 | 306 | 6.4 | 6.4 | 0.00 | 0.00 | 0.00 | 51 | 1012.1 |
| 20260504012910 | 12 | 293 | 4.8 | 11.3 | 0.00 | 0.00 | 0.00 | 49 | 1012.0 |
| 20260504012408 | 12 | 309 | 3.2 | 4.8 | 0.00 | 0.00 | 0.00 | 50 | 1011.8 |
| 20260504011905 | 12 | 301 | 3.2 | 6.4 | 0.00 | 0.00 | 0.00 | 48 | 1011.9 |
| 20260504011402 | 13 | 302 | 3.2 | 4.8 | 0.00 | 0.00 | 0.00 | 48 | 1011.9 |
| 20260504010858 | 13 | 321 | 9.7 | 16.1 | 0.00 | 0.00 | 0.00 | 47 | 1011.8 |
| 20260504010354 | 13 | 312 | 8.0 | 9.7 | 0.00 | 0.00 | 0.00 | 45 | 1011.9 |
| 20260504005851 | 13 | 306 | 4.8 | 9.7 | 0.00 | 0.00 | 0.00 | 45 | 1011.8 |
| 20260504005348 | 13 | 293 | 6.4 | 9.7 | 0.00 | 0.00 | 0.00 | 44 | 1011.6 |
| 20260504004845 | 13 | 298 | 3.2 | 6.4 | 0.00 | 0.00 | 0.00 | 44 | 1011.4 |
| 20260504004343 | 13 | 302 | 8.0 | 14.5 | 0.00 | 0.00 | 0.00 | 43 | 1011.4 |
| 20260504003839 | 13 | 307 | 6.4 | 9.7 | 0.00 | 0.00 | 0.00 | 44 | 1011.4 |
| 20260504003336 | 12 | 300 | 3.2 | 4.8 | 0.00 | 0.00 | 0.00 | 45 | 1011.3 |
| 20260504002832 | 12 | 282 | 4.8 | 12.9 | 0.00 | 0.00 | 0.00 | 46 | 1011.2 |
| 20260504002329 | 11 | 79 | 1.6 | 3.2 | 0.00 | 0.00 | 0.00 | 51 | 1011.2 |
| 20260504001827 | 11 | 104 | 0.0 | 0.0 | 0.00 | 0.00 | 0.00 | 49 | 1011.1 |
| 20260504001324 | 12 | 100 | 0.0 | 0.0 | 0.00 | 0.00 | 0.00 | 50 | 1011.1 |
| 20260504000821 | 12 | 325 | 0.0 | 1.6 | 0.00 | 0.00 | 0.00 | 50 | 1011.1 |
| 20260504000318 | 12 | 103 | 1.6 | 3.2 | 0.00 | 0.00 | 0.00 | 49 | 1011.2 |
| 20260503235815 | 12 | 194 | 0.0 | 1.6 | 0.00 | 0.00 | 0.00 | 47 | 1011.1 |
| 20260503235313 | 12 | 222 | 1.6 | 3.2 | 0.00 | 0.00 | 0.00 | 46 | 1011.2 |
| 20260503234805 | 12 | 124 | 1.6 | 3.2 | 0.00 | 0.00 | 0.00 | 47 | 1011.2 |
| 20260503234303 | 12 | 284 | 1.6 | 3.2 | 0.00 | 0.00 | 0.00 | 46 | 1011.4 |
| 20260503233800 | 12 | 288 | 4.8 | 4.8 | 0.00 | 0.00 | 0.00 | 46 | 1011.6 |
| 20260503233255 | 12 | 302 | 6.4 | 9.7 | 0.00 | 0.00 | 0.00 | 45 | 1011.7 |
| 20260503232752 | 12 | 306 | 6.4 | 11.3 | 0.00 | 0.00 | 0.00 | 46 | 1011.7 |
| 20260503232249 | 12 | 303 | 4.8 | 11.3 | 0.00 | 0.00 | 0.00 | 44 | 1011.5 |
| 20260503231747 | 12 | 303 | 9.7 | 11.3 | 0.00 | 0.00 | 0.00 | 42 | 1011.6 |
| 20260503231244 | 12 | 303 | 6.4 | 12.9 | 0.00 | 0.00 | 0.00 | 41 | 1011.5 |
| 20260503230740 | 12 | 309 | 4.8 | 9.7 | 0.00 | 0.00 | 0.00 | 41 | 1011.5 |
| 20260503230237 | 12 | 289 | 3.2 | 6.4 | 0.00 | 0.00 | 0.00 | 44 | 1011.4 |
| 20260503225729 | 12 | 303 | 3.2 | 3.2 | 0.00 | 0.00 | 0.00 | 41 | 1011.3 |
| 20260503225229 | 12 | 308 | 1.6 | 3.2 | 0.00 | 0.00 | 0.00 | 41 | 1011.3 |
| 20260503224727 | 12 | 310 | 4.8 | 4.8 | 0.00 | 0.00 | 0.00 | 41 | 1011.2 |
| 20260503224225 | 12 | 310 | 1.6 | 3.2 | 0.00 | 0.00 | 0.00 | 41 | 1011.1 |
| 20260503223722 | 13 | 314 | 0.0 | 4.8 | 0.00 | 0.00 | 0.00 | 41 | 1011.1 |
| 20260503223219 | 13 | 300 | 0.0 | 3.2 | 0.00 | 0.00 | 0.00 | 40 | 1011.1 |
| 20260503222710 | 13 | 168 | 1.6 | 6.4 | 0.00 | 0.00 | 0.00 | 39 | 1011.1 |
| 20260503222208 | 13 | 261 | 0.0 | 1.6 | 0.00 | 0.00 | 0.00 | 40 | 1010.9 |
| 20260503221706 | 13 | 308 | 3.2 | 4.8 | 0.00 | 0.00 | 0.00 | 39 | 1011.1 |
| 20260503221203 | 13 | 299 | 1.6 | 4.8 | 0.00 | 0.00 | 0.00 | 41 | 1011.3 |
| 20260503220659 | 12 | 305 | 1.6 | 1.6 | 0.00 | 0.00 | 0.00 | 41 | 1011.2 |
| 20260503220156 | 12 | 308 | 3.2 | 4.8 | 0.00 | 0.00 | 0.00 | 40 | 1011.4 |
| 20260503215653 | 13 | 335 | 1.6 | 3.2 | 0.00 | 0.00 | 0.00 | 40 | 1011.6 |
| 20260503215149 | 13 | 302 | 3.2 | 4.8 | 0.00 | 0.00 | 0.00 | 42 | 1011.6 |
| 20260503214648 | 13 | 150 | 0.0 | 1.6 | 0.00 | 0.00 | 0.00 | 41 | 1011.3 |
| 20260503214143 | 13 | 296 | 0.0 | 1.6 | 0.00 | 0.00 | 0.00 | 43 | 1011.5 |
| 20260503213638 | 12 | 292 | 4.8 | 6.4 | 0.00 | 0.00 | 0.00 | 42 | 1011.2 |
| 20260503213134 | 12 | 311 | 3.2 | 6.4 | 0.00 | 0.00 | 0.00 | 43 | 1011.5 |
| 20260503212631 | 12 | 287 | 4.8 | 6.4 | 0.00 | 0.00 | 0.00 | 42 | 1011.2 |
| 20260503212129 | 12 | 308 | 9.7 | 11.3 | 0.00 | 0.00 | 0.00 | 43 | 1011.2 |
| 20260503211627 | 13 | 297 | 4.8 | 4.8 | 0.00 | 0.00 | 0.00 | 43 | 1011.3 |
| 20260503211122 | 12 | 178 | 1.6 | 6.4 | 0.00 | 0.00 | 0.00 | 44 | 1011.3 |
| 20260503210618 | 12 | 277 | 3.2 | 4.8 | 0.00 | 0.00 | 0.00 | 43 | 1011.4 |
| 20260503210115 | 13 | 303 | 6.4 | 6.4 | 0.00 | 0.00 | 0.00 | 43 | 1011.5 |
| 20260503205611 | 12 | 294 | 3.2 | 4.8 | 0.00 | 0.00 | 0.00 | 43 | 1011.6 |
| 20260503205107 | 12 | 328 | 4.8 | 4.8 | 0.00 | 0.00 | 0.00 | 43 | 1011.6 |
| 20260503204604 | 12 | 303 | 6.4 | 12.9 | 0.00 | 0.00 | 0.00 | 43 | 1011.6 |
| 20260503204101 | 12 | 308 | 6.4 | 9.7 | 0.00 | 0.00 | 0.00 | 43 | 1011.5 |
| 20260503203558 | 12 | 310 | 9.7 | 11.3 | 0.00 | 0.00 | 0.00 | 44 | 1011.5 |
| 20260503203055 | 12 | 302 | 4.8 | 12.9 | 0.00 | 0.00 | 0.00 | 42 | 1011.7 |
| 20260503202553 | 13 | 280 | 1.6 | 4.8 | 0.00 | 0.00 | 0.00 | 41 | 1011.6 |
| 20260503202051 | 12 | 317 | 4.8 | 9.7 | 0.00 | 0.00 | 0.00 | 40 | 1011.7 |
| 20260503201549 | 12 | 300 | 4.8 | 9.7 | 0.00 | 0.00 | 0.00 | 41 | 1011.8 |
| 20260503201046 | 12 | 306 | 9.7 | 9.7 | 0.00 | 0.00 | 0.00 | 43 | 1011.8 |
| 20260503200542 | 12 | 287 | 6.4 | 9.7 | 0.00 | 0.00 | 0.00 | 43 | 1011.9 |
| 20260503200039 | 12 | 293 | 4.8 | 6.4 | 0.00 | 0.00 | 0.00 | 42 | 1012.0 |
| 20260503195536 | 12 | 298 | 3.2 | 4.8 | 0.00 | 0.00 | 0.00 | 41 | 1011.9 |
| 20260503195032 | 12 | 297 | 1.6 | 3.2 | 0.00 | 0.00 | 0.00 | 42 | 1012.0 |
| 20260503194530 | 12 | 278 | 3.2 | 4.8 | 0.00 | 0.00 | 0.00 | 42 | 1012.2 |
| 20260503194030 | 12 | 299 | 1.6 | 4.8 | 0.00 | 0.00 | 0.00 | 42 | 1012.1 |
| 20260503193527 | 12 | 303 | 4.8 | 6.4 | 0.00 | 0.00 | 0.00 | 41 | 1012.2 |
| 20260503193022 | 11 | 298 | 6.4 | 6.4 | 0.00 | 0.00 | 0.00 | 40 | 1012.2 |
| 20260503192518 | 12 | 300 | 6.4 | 11.3 | 0.00 | 0.00 | 0.00 | 39 | 1012.2 |
| 20260503192014 | 12 | 316 | 8.0 | 11.3 | 0.00 | 0.00 | 0.00 | 39 | 1012.3 |
| 20260503191511 | 12 | 299 | 1.6 | 6.4 | 0.00 | 0.00 | 0.00 | 38 | 1012.1 |
| 20260503191008 | 12 | 311 | 6.4 | 11.3 | 0.00 | 0.00 | 0.00 | 38 | 1012.3 |
| 20260503190505 | 12 | 323 | 9.7 | 11.3 | 0.00 | 0.00 | 0.00 | 37 | 1012.3 |
| 20260503190002 | 12 | 310 | 4.8 | 4.8 | 0.00 | 0.00 | 0.00 | 36 | 1012.3 |
| 20260503185458 | 12 | 225 | 1.6 | 4.8 | 0.00 | 0.00 | 0.00 | 38 | 1012.5 |
| 20260503184957 | 12 | 292 | 4.8 | 6.4 | 0.00 | 0.00 | 0.00 | 36 | 1012.4 |
| 20260503184454 | 12 | 316 | 6.4 | 9.7 | 0.00 | 0.00 | 0.00 | 37 | 1012.5 |
| 20260503183950 | 12 | 261 | 0.0 | 9.7 | 0.00 | 0.00 | 0.00 | 36 | 1012.6 |
| 20260503183447 | 12 | 311 | 4.8 | 12.9 | 0.00 | 0.00 | 0.00 | 35 | 1012.7 |
| 20260503182944 | 12 | 333 | 4.8 | 9.7 | 0.00 | 0.00 | 0.00 | 35 | 1012.7 |
| 20260503182443 | 12 | 315 | 3.2 | 4.8 | 0.00 | 0.00 | 0.00 | 35 | 1012.7 |
| 20260503181940 | 12 | 303 | 9.7 | 9.7 | 0.00 | 0.00 | 0.00 | 36 | 1012.8 |
| 20260503181437 | 12 | 297 | 3.2 | 4.8 | 0.00 | 0.00 | 0.00 | 38 | 1012.9 |
| 20260503180933 | 12 | 190 | 3.2 | 6.4 | 0.00 | 0.00 | 0.00 | 36 | 1013.1 |
| 20260503180431 | 12 | 312 | 1.6 | 6.4 | 0.00 | 0.00 | 0.00 | 34 | 1012.9 |
| 20260503175928 | 13 | 128 | 1.6 | 4.8 | 0.00 | 0.00 | 0.00 | 35 | 1013.1 |
| 20260503175426 | 12 | 281 | 1.6 | 1.6 | 0.00 | 0.00 | 0.00 | 35 | 1013.2 |
| 20260503174921 | 11 | 293 | 1.6 | 4.8 | 0.00 | 0.00 | 0.00 | 37 | 1013.4 |
| 20260503174420 | 11 | 301 | 9.7 | 12.9 | 0.00 | 0.00 | 0.00 | 35 | 1013.4 |
| 20260503173914 | 11 | 304 | 8.0 | 9.7 | 0.00 | 0.00 | 0.00 | 33 | 1013.5 |
| 20260503173411 | 12 | 310 | 1.6 | 9.7 | 0.00 | 0.00 | 0.00 | 33 | 1013.5 |
| 20260503172908 | 12 | 304 | 1.6 | 9.7 | 0.00 | 0.00 | 0.00 | 34 | 1013.4 |
| 20260503172405 | 11 | 258 | 0.0 | 6.4 | 0.00 | 0.00 | 0.00 | 35 | 1013.6 |
| 20260503171901 | 11 | 309 | 9.7 | 11.3 | 0.00 | 0.00 | 0.00 | 37 | 1013.6 |
| 20260503171358 | 11 | 176 | 1.6 | 4.8 | 0.00 | 0.00 | 0.00 | 34 | 1013.7 |
| 20260503170855 | 11 | 327 | 8.0 | 11.3 | 0.00 | 0.00 | 0.00 | 34 | 1013.7 |
| 20260503170352 | 11 | 318 | 6.4 | 9.7 | 0.00 | 0.00 | 0.00 | 35 | 1013.8 |
| 20260503150744 | 9 | 318 | 1.6 | 6.4 | 0.00 | 0.00 | 0.00 | 42 | 1015.2 |
| 20260503150240 | 8 | 160 | 3.2 | 6.4 | 0.00 | 0.00 | 0.00 | 41 | 1015.3 |
| 20260503140204 | 7 | 301 | 4.8 | 6.4 | 0.00 | 0.00 | 0.00 | 50 | 1015.5 |
| 20260503131134 | 6 | 307 | 4.8 | 9.7 | 0.00 | 0.00 | 0.00 | 64 | 1015.8 |
| 20260503130632 | 6 | 318 | 6.4 | 6.4 | 0.00 | 0.00 | 0.00 | 67 | 1015.6 |
| 20260503130129 | 6 | 305 | 3.2 | 4.8 | 0.00 | 0.00 | 0.00 | 66 | 1015.7 |
| 20260503110522 | 3 | 303 | 1.6 | 1.6 | 0.00 | 0.00 | 0.00 | 80 | 1015.2 |
| 20260503090408 | 4 | 302 | 0.0 | 1.6 | 0.00 | 0.00 | 0.00 | 77 | 1015.0 |
| 20260503081329 | 3 | 285 | 0.0 | 0.0 | 0.00 | 0.00 | 0.00 | 77 | 1015.1 |
| 20260503080826 | 4 | 289 | 0.0 | 0.0 | 0.00 | 0.00 | 0.00 | 77 | 1014.8 |
| 20260503080323 | 4 | 282 | 0.0 | 1.6 | 0.00 | 0.00 | 0.00 | 77 | 1014.8 |